Simultaneous Nadir Overpasses (SNOs) Predictions

Prediction of SNOs between GOES-17 and METOP-B Satellite Orbit:

Table of predicted SNOs for the next 14.0 days since TLE Epoch: 5/22/2020
Index Date Time (GOES-17) GOES-17 Lat,Lon METOP-B Lat,Lon Distance(km) Time Diff (sec)
1 05/23/2020 06:38:31 -0.03,-137.20 -0.05,-137.33 15.21 80
2 05/25/2020 18:39:23 0.02,-137.19 -0.07,-136.91 33.67 80
3 05/27/2020 06:55:43 -0.01,-137.18 -0.96,-141.50 492.01 80
4 05/28/2020 06:35:04 -0.01,-137.17 0.17,-136.51 76.13 80
5 05/29/2020 18:53:54 0.01,-137.16 0.89,-141.06 445.05 80
6 05/30/2020 18:35:55 0.01,-137.14 -0.24,-136.07 122.80 80
7 06/01/2020 06:52:15 -0.01,-137.12 -0.79,-140.66 403.51 80
8 06/02/2020 06:34:15 -0.00,-137.11 0.34,-135.67 164.03 80
9 06/03/2020 18:50:26 0.00,-137.08 0.72,-140.22 358.20 80
10 06/04/2020 18:32:26 -0.00,-137.06 -0.40,-135.23 208.86 80




NCC Satellite Simultaneous Nadir Overpasses (SNOs) Prediction Service
